Погода в Нахчиване

Погода в Нахчиване : погода сейчас, прогноз погоды и архив. Всё, что Вы хотите узнать о погоде в Нахчиване!

Поиск расширенной информации на нашем сайте:

Другие новости

Новости СМИ2

Главная страница сайта

Новости сайта

03.07.2017

Напоминаем, что на нашем специализированном сайте Метеоцентр.Азия вы можете получить высокодетализированные автоматические прогнозы погоды по пунктам России, СНГ и мира в авиационном формате (включающие направление и скорость ветра, видимость, явления погоды, количество и форму облачности, нижнюю и верхнюю границу облачности).


Погода в Нахчиване - сегодня

Время (UTC), дата Ветер
(°,м/с) 
Видим.   Явления Облачность Т
(°С)
Тd
(°С)
f(%) Тe
(°С)
Pmin
(гПа)
dP
(гПа)
Po
(мм)
O2
(г/м3)
Тmin Tmax R s Состояние
почвы
12 13.08.18 140 (ЮВ) 20000 м    3/3 1000 м средняя 
[Cu med, cong|Ac trans]
+29.9 +17.9 49 +47  1002.5  -1.8  682  243           
15 13.08.18 140 (ЮВ) 20000 м    3/3 1000 м 
[Cu med, cong]
+28 +16.9 51 +43  1002.1  -1  681  245           
21 13.08.18 140 (ЮВ) н/о    ясно 
+22 +15.5 67 +34  1007.1  0.5  683  251           
00 14.08.18 140 (ЮВ) н/о    ясно 
+20 +14.3 70 +30  1008  0.2  683  253           
03 14.08.18 100 (В) 20000 м    ясно 
+15.2 +10 71 +19  1010.5  0.5  683  259           
06 14.08.18 150 (ЮВ) 20000 м    3/0 средняя 
[Cu hum|Ac trans]
+25 +14.5 52 +35  1007.4  0.4  684  249  +15.1        сухая 
09 14.08.18 170 (Ю) 20000 м    4/3 1000 м средняя 
[Cu hum|Ac trans]
+28.2 +15.9 47 +41  1004.8  -1.3  683  246           
12 14.08.18 150 (ЮВ) 20000 м    4/3 1000 м средняя 
[Cu hum|Ac trans]
+28.6 +15.6 45 +41  1003.4  -1.1  682  245           
15 14.08.18 130 (ЮВ) 20000 м    3/0 
+25.4 +13.9 49 +35  1004  -0.4  682  248           
18 14.08.18 130 (ЮВ) 1100 м  зарница  8/3 600 м кучево-дожд., средняя 
[Cb cap|Ac trans]
+21.4 +13.4 60 +30  1008.7  2.8  684  253    +29.6       
21 14.08.18 120 (ЮВ) 12  н/о  зарница  3/3 600 м кучево-дожд., средняя 
[Cb cap|Ac trans]
+20.4 +13.2 63 +28  1009.8  0.7  684  254           
00 15.08.18 120 (ЮВ) 12  н/о  зарница  3/3 600 м кучево-дожд., средняя 
[Cb cap|Ac trans]
+19.2 +12.4 65 +26  1010.9  0.6  685  255           
03 15.08.18 100 (В) 20000 м    4/0 средняя 
[Ac trans]
+16.2 +10.4 68 +20  1012.7  0.6  685  259           
06 15.08.18 110 (В) 20000 м    4/0 средняя 
[Ac trans]
+23.2 +14.6 58 +34  1010.5  0.5  686  251  +16.1        сухая 
09 15.08.18 тихо ()   20000 м    3/0 средняя 
[Ac trans]
+27.2 +15.9 50 +40  1008  -1.1  685  247           
12 15.08.18 тихо ()   20000 м    3/3 1000 м 
[Cu hum]
+30.4 +17.2 45 +46  1005  -1.6  684  244           
15 15.08.18 140 (ЮВ) 20000 м    3/3 1000 м 
[Cu hum]
+28.4 +15.8 46 +41  1005.5  -0.2  683  246           
21 15.08.18 140 (ЮВ) н/о    ясно 
+22.8 +15.1 62 +34  1010.6  0.3  685  252           
00 16.08.18 140 (ЮВ) н/о    ясно 
+20.2 +13.2 64 +28  1011  0.3  686  254           
03 16.08.18 130 (ЮВ) 20000 м    3/0 средняя 
[Ac trans]
+19.8 +14.7 72 +31  1011.9  0.4  686  254           
06 16.08.18 120 (ЮВ) 20000 м    ясно 
+24.6 +16.7 61 +39  1010.6  0.1  686  250  +19.7        сухая 
09 16.08.18 180 (Ю) 20000 м    ясно 
+29.2 +15.6 44 +42  1007.6  -1.2  685  246           
12 16.08.18 180 (Ю) 20000 м    ясно 
+32.8 +17.2 39 +49  1003.7  -2.5  683  242           
15 16.08.18 120 (ЮВ) 20000 м    ясно 
+32 +17.3 42 +48  1002.6  -1.2  682  242           
21 16.08.18 110 (В) н/о    ясно 
+25 +14 50 +34  1007.3  0.7  684  249           
Время (UTC), дата Ветер
(°,м/с) 
Видим.   Явления Облачность Т
(°С)
Тd
(°С)
f(%) Тe
(°С)
Pmin
(гПа)
dP
(гПа)
Po
(мм)
O2
(г/м3)
Тmin Tmax R s Состояние
почвы

Для получения пояснительной информации подведите курсор к названию столбца.

ПОГОДА в Нахчиване - архив

Всё, что Вы хотите узнать о погоде в Нахчиване - удобно и подробно!

Выберите нужную дату (начиная с 1 января 2015* года) и нажмите кнопку "Найти".
Будут отображены архивные сводки погоды по пункту Нахчиван, начиная с указанной даты.


Отображать данные в формате CSV (для использования в таблицах Excel)


Внимание! Наш архив погоды предназначен исключительно для личного некоммерческого использования в познавательных целях. Если Вам необходимы официальные справки о состоянии погоды (для производственных, юридических, коммерческих и т.п. целей), обращайтесь в органы Росгидромета.

*Примечание: данная дата относится к архиву по метеостанциям СССР (Россия, СНГ, Балтия).
Архив по метеостанциям Зарубежной Европы и Азии (кроме Китая) хранится 10 дней, по другим регионам земного шара (Китай, Африка, Америка, Австралия, Океания) - 1 день.

Нахчиван - район местоположения метеостанции


Название, широта, долгота, высота метеостанции:
Нахчиван 39.2°ш. 45.4°д. 873 м над ур. моря [Азербайджан]

Дополнительная информация

В oтличие oт бoльшинства пoгoдных сайтoв мы публикуем пoдрoбную метеoинфoрмацию в детальнoм прoфессиoнальнoм фoрмате.

Характеристики температуры и влажнoсти вoздуха измеряются на высoте 2 м в тени вдали oт зданий и деревьев.
Скoрoсть ветра измеряется на высoте 10 м (на урoвне рoста челoвека скoрoсть ветра ниже в 1.5-2 раза). Если метеoстанция нахoдится в гoрoде или в лесу, тo скoрoсть ветра занижена на 2-4 м/с пo сравнению с oткрытым местoм. Скoрoсть ветра над акватoриями крупных рек и oзёр, а также на вершинах хoлмoв на 2-5 м/с выше, чем в oбычных услoвиях.
Атмoсфернoе давление в разных тoчках местнoсти мoжет значительнo oтличаться oт давления на метеoстанции, в зависимoсти oт услoвий рельефа (при пoдъёме на 10 м давление пoнижается примернo на 1 мм рт.ст.).